Regional Weather Roundup
Issued by NWS Newport/Morehead, NC

Current Version | Previous Version | Graphics & Text | Print | Product List | Glossary On
Versions: 1 2 3 4 5 6 7 8 9 10 11 12 13 14 15 16 17 18 19 20 21 22 23 24 25 26 27 28 29 30 31 32 33 34 35 36 37 38 39 40 41 42 43 44 45 46 47 48 49 50
000 ASUS42 KMHX 241413 RWRMHX WEATHER ROUNDUP FOR EASTERN NORTH CAROLINA NATIONAL WEATHER SERVICE NEWPORT/MOREHEAD CITY NC 1000 AM EDT FRI MAR 24 2017 NOTE: "FAIR" INDICATES FEW OR NO CLOUDS BELOW 12,000 FEET WITH NO SIGNIFICANT WEATHER AND/OR OBSTRUCTIONS TO VISIBILITY NCZ015>017-031-032-045>047-102-103-241500- NORTH COAST CITY SKY/WX TMP DP RH WIND PRES REMARKS EDENTON SUNNY 51 26 36 CALM 30.54S ELIZABETH CITY SUNNY 52 34 50 S6 30.54S KITTY HAWK NOT AVBL MANTEO SUNNY 52 40 64 SE7 30.54F $$ NCZ045>047-081-094-103-104-241500- CENTRAL COAST CITY SKY/WX TMP DP RH WIND PRES REMARKS FRISCO SUNNY 61 46 57 S8 30.54S $$ NCZ095-097-098-100-101-241500- SOUTHERN COAST CITY SKY/WX TMP DP RH WIND PRES REMARKS BEAUFORT SUNNY 59 48 67 VRB3 30.53S CEDAR ISLAND NOT AVBL JACKSONVILLE SUNNY 50 41 71 E3 30.53S PINEY ISLAND NOT AVBL WILMINGTON SUNNY 54 43 66 CALM 30.53S $$ NCZ011>013-027>030-043-044-078>080-089-090>093-098-241500- COASTAL PLAIN CITY SKY/WX TMP DP RH WIND PRES REMARKS AHOSKIE N/A 48 31 51 S7 30.53S CLINTON SUNNY 53 42 66 CALM 30.53S ELIZABETHTOWN SUNNY 52 43 71 SE3 30.52S GOLDSBORO SUNNY 52 38 59 SE3 30.51S GREENVILLE SUNNY 52 34 50 S3 30.52S HAVELOCK SUNNY 56 46 69 CALM 30.54S KENANSVILLE SUNNY 52 36 54 SE3 30.52F KINSTON SUNNY 52 34 50 SE5 30.53F NEW BERN SUNNY 51 43 74 CALM 30.55S RICHLANDS SUNNY 53 42 66 E3 30.53F ROCKY MOUNT MOSUNNY 49 38 65 S5 30.53R WASHINGTON SUNNY 51 28 41 SE6 30.54S WHITEVILLE SUNNY 52 42 67 NE3 30.51F $$ AMZ130-135-150-152-154-156-158-170-250-252-270-ANZ085-086-088-633-658-670-241500- MARINE OBSERVATIONS STATION/POSITION TIME TEMP WIND PRES WAVE SWELL AIR SEA DIR/SP/G HT/PER HT/PER (UTC) (F) (DEG/KT/KT) (MB) (FT/S) (FT/S) CHESAPEAKE LIGHT NOT AVBL 64 E VA BEACH 1350 50 48 140/ 6/ 8 1034.0 3/ 9 3/ 9 DUCK 1342 48 47 120/ 5/ 6 1033.5 2 E DUCK 1330 48 N/A 3/ 9 2/11 OREGON INLET 1342 49 49 70/ 6/ 9 1034.1 13E OREGON INLT NOT AVBL HATTERAS CG 1342 57 51 150/ 8/ 10 1033.6 DIAMOND BUOY 1350 60 75 180/ 14/ 19 1034.3 5/10 5/10 CAPE LOOKOUT 1300 52 40/ 6/ 7 1033.5 BEAUFORT LAB 1342 55 50 20/ 2/ 4 1033.0 30 SE NEW RVR IN 1308 63 160/ 8/ 12 1033.6 30 SE NEW RVR IN 1343 68 N/A 3/10 27 SE WRIGHTSVLE 1308 63 62 140/ 6/ 10 1032.6 5 SE WRIGHTSVLE 1308 52 56 40/ 8/ 17 1033.5 225 S CAPE HAT 1350 63 73 80/ 12/ 16 1033.1 6/10 5/10 41 SE CHARLESTON 1250 67 71 90/ 10/ 14 1031.3 5/ 7 3/ 7 $$

USA.gov is the U.S. government's official web portal to all federal, state and local government web resources and services.